When you browse on this site, cookies collect data to enhance your experience and personalize the content and advertising you see.
Visit our Privacy Policy to learn more. By continuing to use the site, you agree to this use of cookies and data.
  • In Latvia
  • List of Countries
  • For 7 days
  • Water Temperature
  • Satellite Maps
  • Weather Map
  • Weather Widgets
  • user-avatar
    Login

    Hourly Weather Andora

    Today, 27 March, Wednesday

    Time Temperature Precipitation Wind Pressure Humidity
    00:00 -4°C° 0 mm 2 mps 625 mmHg 65%
    01:00 -4°C° 0 mm 2 mps 625 mmHg 62%
    02:00 -4°C° 0 mm 2 mps 625 mmHg 59%
    03:00 -4°C° 0 mm 2 mps 625 mmHg 57%
    04:00 -4°C° 0 mm 2 mps 625 mmHg 51%
    05:00 -3°C° 0 mm 2 mps 625 mmHg 46%
    06:00 -3°C° 0 mm 2 mps 625 mmHg 40%
    07:00 +1°C° 0 mm 2 mps 626 mmHg 34%
    08:00 +3°C° 0 mm 2 mps 628 mmHg 28%
    09:00 +6°C° 0 mm 2 mps 629 mmHg 22%
    10:00 +7°C° 0 mm 2 mps 629 mmHg 22%
    11:00 +8°C° 0 mm 2 mps 629 mmHg 23%
    12:00 +10°C° 0 mm 2 mps 630 mmHg 23%
    13:00 +9°C° 0 mm 2 mps 629 mmHg 25%
    14:00 +9°C° 0 mm 2 mps 629 mmHg 27%
    15:00 +9°C° 0 mm 2 mps 629 mmHg 29%
    16:00 +7°C° 0 mm 2 mps 628 mmHg 38%
    17:00 +5°C° 0 mm 2 mps 627 mmHg 48%
    18:00 +2°C° 0 mm 2 mps 627 mmHg 57%
    19:00 +1°C° 0 mm 2 mps 627 mmHg 63%
    20:00 -1°C° 0 mm 2 mps 627 mmHg 69%
    21:00 -2°C° 0 mm 2 mps 627 mmHg 75%
    22:00 -2°C° 0 mm 2 mps 627 mmHg 72%
    23:00 -2°C° 0 mm 2 mps 627 mmHg 70%

    Tomorrow, 28 March, Thursday

    Time Temperature Precipitation Wind Pressure Humidity
    00:00 -2°C° 0 mm 2 mps 627 mmHg 67%
    01:00 -2°C° 0 mm 2 mps 627 mmHg 67%
    02:00 -2°C° 0 mm 2 mps 627 mmHg 68%
    03:00 -2°C° 0 mm 2 mps 627 mmHg 68%
    04:00 0°C° 0 mm 1 mps 627 mmHg 70%
    05:00 0°C° 0 mm 1 mps 627 mmHg 71%
    06:00 0°C° 0 mm 1 mps 627 mmHg 73%
    07:00 +1°C° 0 mm 2 mps 628 mmHg 63%
    08:00 +4°C° 0 mm 2 mps 630 mmHg 52%
    09:00 +6°C° 0 mm 2 mps 631 mmHg 42%
    10:00 +8°C° 0 mm 2 mps 631 mmHg 39%
    11:00 +9°C° 0 mm 2 mps 631 mmHg 36%
    12:00 +10°C° 0 mm 2 mps 631 mmHg 33%
    13:00 +10°C° 0 mm 2 mps 631 mmHg 35%
    14:00 +10°C° 0 mm 2 mps 630 mmHg 37%
    15:00 +9°C° 0 mm 2 mps 630 mmHg 39%
    16:00 +7°C° 0 mm 2 mps 629 mmHg 49%
    17:00 +6°C° 0 mm 1 mps 629 mmHg 59%
    18:00 +5°C° 0 mm 1 mps 628 mmHg 69%
    19:00 +4°C° 0 mm 1 mps 628 mmHg 74%
    20:00 +2°C° 0 mm 0 mps 628 mmHg 79%
    21:00 +1°C° 0 mm 0 mps 628 mmHg 83%
    22:00 0°C° 0 mm 0 mps 628 mmHg 85%
    23:00 +1°C° 0 mm 1 mps 628 mmHg 87%

    Day after tomorrow, 29 March, Friday

    Time Temperature Precipitation Wind Pressure Humidity
    00:00 +1°C° 0 mm 1 mps 627 mmHg 89%
    01:00 +1°C° 0 mm 1 mps 627 mmHg 90%
    02:00 0°C° 0 mm 1 mps 627 mmHg 90%
    03:00 0°C° 0 mm 1 mps 627 mmHg 90%
    04:00 0°C° 0 mm 1 mps 627 mmHg 91%
    05:00 0°C° 0 mm 1 mps 627 mmHg 91%
    06:00 0°C° 0 mm 1 mps 627 mmHg 91%
    07:00 +2°C° 0 mm 1 mps 628 mmHg 80%
    08:00 +5°C° 0 mm 1 mps 629 mmHg 69%
    09:00 +6°C° 0 mm 2 mps 630 mmHg 58%
    10:00 +6°C° 0.1 mm 2 mps 630 mmHg 57%
    11:00 +6°C° 0.1 mm 2 mps 630 mmHg 57%
    12:00 +7°C° 0.1 mm 2 mps 629 mmHg 56%
    13:00 +7°C° 0.1 mm 2 mps 629 mmHg 56%
    14:00 +7°C° 0.1 mm 2 mps 629 mmHg 56%
    15:00 +7°C° 0.1 mm 2 mps 628 mmHg 56%
    16:00 +6°C° 0.1 mm 2 mps 628 mmHg 60%
    17:00 +6°C° 0.1 mm 1 mps 628 mmHg 65%
    18:00 +5°C° 0.1 mm 1 mps 627 mmHg 69%
    19:00 +4°C° 0.1 mm 1 mps 627 mmHg 74%
    20:00 +3°C° 0.1 mm 1 mps 627 mmHg 79%
    21:00 +2°C° 0.1 mm 1 mps 627 mmHg 84%
    22:00 +1°C° 0 mm 1 mps 627 mmHg 85%
    23:00 +1°C° 0 mm 1 mps 626 mmHg 86%

    30 March, Saturday

    Time Temperature Precipitation Wind Pressure Humidity
    00:00 0°C° 0 mm 1 mps 626 mmHg 87%
    01:00 0°C° 0 mm 1 mps 626 mmHg 86%
    02:00 0°C° 0 mm 1 mps 625 mmHg 85%
    03:00 0°C° 0 mm 1 mps 625 mmHg 85%
    04:00 0°C° 0 mm 1 mps 625 mmHg 83%
    05:00 0°C° 0 mm 1 mps 625 mmHg 82%
    06:00 0°C° 0 mm 1 mps 625 mmHg 80%
    07:00 +2°C° 0 mm 1 mps 626 mmHg 65%
    08:00 +4°C° 0 mm 2 mps 627 mmHg 51%
    09:00 +6°C° 0 mm 2 mps 628 mmHg 36%
    10:00 +7°C° 0 mm 2 mps 628 mmHg 32%
    11:00 +9°C° 0 mm 2 mps 628 mmHg 29%
    12:00 +10°C° 0 mm 2 mps 628 mmHg 25%
    13:00 +9°C° 0 mm 2 mps 628 mmHg 27%
    14:00 +9°C° 0 mm 2 mps 628 mmHg 28%
    15:00 +9°C° 0 mm 2 mps 627 mmHg 30%
    16:00 +7°C° 0 mm 2 mps 626 mmHg 38%
    17:00 +7°C° 0 mm 1 mps 625 mmHg 47%
    18:00 +5°C° 0 mm 1 mps 625 mmHg 56%
    19:00 +3°C° 0 mm 1 mps 624 mmHg 62%
    20:00 +2°C° 0 mm 1 mps 624 mmHg 68%
    21:00 +1°C° 0 mm 1 mps 624 mmHg 74%
    22:00 +1°C° 0 mm 1 mps 624 mmHg 73%
    23:00 +1°C° 0 mm 1 mps 624 mmHg 73%

    31 March, Sunday

    Time Temperature Precipitation Wind Pressure Humidity
    00:00 +1°C° 0 mm 1 mps 623 mmHg 72%
    01:00 +1°C° 0 mm 1 mps 623 mmHg 71%
    02:00 +1°C° 0 mm 1 mps 623 mmHg 71%
    03:00 +1°C° 0 mm 1 mps 623 mmHg 70%
    04:00 +1°C° 0 mm 1 mps 623 mmHg 70%
    05:00 +1°C° 0 mm 1 mps 623 mmHg 69%
    06:00 +1°C° 0 mm 1 mps 623 mmHg 69%
    07:00 +4°C° 0 mm 1 mps 624 mmHg 60%
    08:00 +5°C° 0 mm 0 mps 625 mmHg 50%
    09:00 +8°C° 0 mm 0 mps 626 mmHg 41%
    10:00 +10°C° 0 mm 1 mps 626 mmHg 39%
    11:00 +10°C° 0 mm 1 mps 626 mmHg 37%
    12:00 +10°C° 0 mm 1 mps 625 mmHg 35%
    13:00 +10°C° 0 mm 1 mps 625 mmHg 38%
    14:00 +10°C° 0 mm 1 mps 625 mmHg 40%
    15:00 +10°C° 0 mm 1 mps 624 mmHg 42%
    16:00 +8°C° 0 mm 1 mps 624 mmHg 51%
    17:00 +6°C° 0 mm 0 mps 623 mmHg 60%
    18:00 +5°C° 0 mm 0 mps 623 mmHg 69%
    19:00 +4°C° 0.1 mm 0 mps 623 mmHg 73%
    20:00 +4°C° 0.1 mm 0 mps 623 mmHg 78%
    21:00 +4°C° 0.1 mm 1 mps 623 mmHg 82%
    22:00 +4°C° 0.1 mm 1 mps 622 mmHg 82%
    23:00 +4°C° 0.1 mm 1 mps 622 mmHg 81%

    1 April, Monday

    Time Temperature Precipitation Wind Pressure Humidity
    00:00 +3°C° 0.1 mm 0 mps 622 mmHg 80%
    01:00 +3°C° 0 mm 1 mps 622 mmHg 77%
    02:00 +3°C° 0 mm 1 mps 621 mmHg 73%
    03:00 +3°C° 0 mm 1 mps 621 mmHg 70%
    04:00 +3°C° 0 mm 1 mps 621 mmHg 64%
    05:00 +3°C° 0 mm 1 mps 621 mmHg 57%
    06:00 +3°C° 0 mm 1 mps 621 mmHg 51%
    07:00 +4°C° 0 mm 1 mps 622 mmHg 45%
    08:00 +6°C° 0 mm 1 mps 623 mmHg 39%
    09:00 +7°C° 0 mm 1 mps 623 mmHg 33%
    10:00 +8°C° 0 mm 1 mps 623 mmHg 35%
    11:00 +9°C° 0 mm 1 mps 624 mmHg 36%
    12:00 +9°C° 0 mm 1 mps 624 mmHg 38%
    13:00 +9°C° 0.1 mm 1 mps 623 mmHg 42%
    14:00 +8°C° 0.1 mm 1 mps 623 mmHg 46%
    15:00 +8°C° 0.1 mm 1 mps 622 mmHg 50%
    16:00 +7°C° 0.1 mm 1 mps 622 mmHg 55%
    17:00 +6°C° 0.1 mm 1 mps 622 mmHg 60%
    18:00 +5°C° 0.1 mm 1 mps 622 mmHg 65%
    19:00 +4°C° 0 mm 1 mps 622 mmHg 68%
    20:00 +4°C° 0 mm 1 mps 622 mmHg 71%
    21:00 +3°C° 0 mm 1 mps 622 mmHg 74%
    22:00 +3°C° 0 mm 1 mps 622 mmHg 74%
    23:00 +3°C° 0 mm 1 mps 622 mmHg 74%
    Show more